Hourly Weather Roundup
Issued by NWS Central Illinois

Home | Current Version | Previous Version | Text Only | Print | Product List | Glossary On
Versions: 1 2 3 4 5 6 7 8 9 10 11 12 13 14 15 16 17 18 19 20 21 22 23 24 25 26 27 28 29 30 31 32 33 34 35 36 37 38 39 40 41 42 43 44 45 46 47 48 49 50
000
NZUS43 KILX 220610
HWRILX

Area Weather Roundup
National Weather Service Lincoln IL
100 AM CDT MON MAY 22 2017

NOTE:  "FAIR" indicates few or no clouds below 12,000 feet, with
       no sigificant weather and/or obstructions to visibility.


CITY           SKY/WX    TMP DP  RH WIND       PRES   REMARKS
Bloomington    CLOUDY    49  46  90 SW6       30.10S
6HR MIN TEMP:  48; 6HR MAX TEMP:  53;

Champaign      CLEAR     50  46  86 SW8       30.10S
6HR MIN TEMP:  50; 6HR MAX TEMP:  57;

Danville       CLEAR     47  45  93 SW3       30.07S
6HR MIN TEMP:  47; 6HR MAX TEMP:  58;

Decatur        CLEAR     51  47  86 SW6       30.11S
6HR MIN TEMP:  50; 6HR MAX TEMP:  58;

Effingham      CLEAR     51  51 100 CALM      30.14S
6HR MIN TEMP:  51; 6HR MAX TEMP:  65;

Flora          PTCLDY    55  52  91 CALM      30.13S
6HR MIN TEMP:  55; 6HR MAX TEMP:  68;

Galesburg      CLEAR     47  43  86 SW7       30.07S
6HR MIN TEMP:  47; 6HR MAX TEMP:  53;

Jacksonville   CLEAR     49  47  93 CALM      30.12R
6HR MIN TEMP:  48; 6HR MAX TEMP:  59;

Lacon          CLEAR     50  45  80 SW7       30.06S
6HR MIN TEMP:  50; 6HR MAX TEMP:  53;

Lawrenceville  CLOUDY    57  48  72 CALM      30.12F
6HR MIN TEMP:  55; 6HR MAX TEMP:  69;

Litchfield     CLEAR     51  51  98 CALM      30.13R
6HR MIN TEMP:  51; 6HR MAX TEMP:  62;

$$


CITY           SKY/WX    TMP DP  RH WIND       PRES   REMARKS
Lincoln        PTCLDY    52  49  90 CALM      30.10S
6HR MIN TEMP:  52; 6HR MAX TEMP:  57;

Macomb         CLEAR     49  47  92 SW5       30.11F
6HR MIN TEMP:  48; 6HR MAX TEMP:  56;

Mattoon        PTCLDY    51  49  92 SW3       30.11S
6HR MIN TEMP:  50; 6HR MAX TEMP:  62;

Mt Carmel AP   PTCLDY    56  49  80 CALM      30.13R
6HR MIN TEMP:  56; 6HR MAX TEMP:  70;

Olney-Noble AP CLOUDY    52  52 100 CALM      30.13S
Paris AP       CLEAR     49  48  96 CALM      30.12S
6HR MIN TEMP:  49; 6HR MAX TEMP:  62;

Peoria         CLEAR     48  45  89 SW3       30.08F
6HR MIN TEMP:  48; 6HR MAX TEMP:  55;

Pontiac        CLOUDY    51  48  91 SW8       30.07F
6HR MIN TEMP:  51; 6HR MAX TEMP:  53;

Rantoul        CLEAR     50  47  90 SW5       30.09S
6HR MIN TEMP:  50; 6HR MAX TEMP:  57;

Robinson       CLOUDY    51  49  93 CALM      30.13F
6HR MIN TEMP:  50; 6HR MAX TEMP:  66;

Springfield    PTCLDY    53  50  89 CALM      30.12R
6HR MIN TEMP:  52; 6HR MAX TEMP:  59;

Taylorville    CLEAR     50  49  98 S5        30.12S
6HR MIN TEMP:  49; 6HR MAX TEMP:  59;

$$

...REGIONAL REPORTS...


CITY           SKY/WX    TMP DP  RH WIND       PRES   REMARKS
Chicago O`Hare CLOUDY    51  41  68 W9G23     30.00F
Kankakee       CLOUDY    50  44  79 W9G16     30.06F
Moline         CLEAR     50  41  71 SW8       30.04F
Mount Sterling CLEAR     47  46  94 CALM      30.11R
Mount Vernon     N/A     51  50  96 CALM      30.14S
Pittsfield     CLEAR     53  49  89 S6        30.13R
Quincy         CLEAR     49  48  97 CALM      30.11R
Rockford       CLOUDY    51  42  71 W10G21    30.02S
$$


CITY           SKY/WX    TMP DP  RH WIND       PRES   REMARKS
Burlington     CLEAR     48  45  89 SW6       30.08S
Cedar Rapids   CLEAR     46  44  93 W9        30.02F
Des Moines     CLEAR     49  43  80 S6        30.04F
Kirksville     CLEAR     46  44  93 CALM      30.12S
Ottumwa        CLEAR     44  43  96 S3        30.06F
St Louis       PTCLDY    60  47  61 SW3       30.14R
$$


CITY           SKY/WX    TMP DP  RH WIND       PRES   REMARKS
Terre Haute    CLEAR     51  46  83 CALM      30.12S
Evansville     CLOUDY    60  49  66 N6        30.14R
Indianapolis   CLEAR     51  41  68 W6        30.11R
Lafayette      MOCLDY    49  44  83 SW5       30.08F
Madison        CLOUDY    49  41  74 SW9       29.94F
Milwaukee      MOCLDY    50  43  77 W15       29.94F
$$






USA.gov is the U.S. government's official web portal to all federal, state and local government web resources and services.